[[{"header":{"parameterUnit":"m.s-1","parameterCategory":1,"la1":30.2992,"la2":30.254,"lo1":-89.0895,"lo2":-89.0443,"dy":0.0025,"dx":0.0025,"nx":19,"ny":19,"refTime":"2026-04-25T09:00:00:Z","depth":0,"parameterNumber":2,"parameterNumberName":"U-component_of_WINDS"},"data":[0,0,0,2.0929,2.093,2.0933,2.0933,2.0966,2.0966,0,0,0,0,0,0,0,0,0,0,0,2.0946,2.0947,2.0929,2.093,2.0933,2.0933,2.0966,2.0966,0,0,0,0,0,0,0,0,0,0,0,2.0945,2.0946,2.0947,2.093,2.0933,2.0933,2.0965,2.0953,0,0,0,0,0,0,0,0,0,0,2.0944,2.0977,2.0946,2.0948,2.093,2.0933,2.0933,2.0952,2.0954,2.0976,0,2.1002,0,2.0985,2.097,2.097,0,0,0,2.0917,2.0976,2.0961,2.0948,2.093,2.0933,2.0928,2.0952,2.0955,2.0979,2.1002,2.1002,2.0985,2.0971,2.0971,2.1144,2.1145,0,0,2.0916,2.0956,2.0959,2.0963,2.0965,2.0928,2.0928,2.0953,2.0981,2.1002,2.1002,2.0986,2.0971,2.0971,2.1143,2.1144,0,0,0,2.0925,2.0957,2.094,2.0962,2.0961,2.0928,2.0929,2.098,2.0971,2.1003,2.0986,2.0971,2.0972,2.1141,2.1143,2.125,0,0,0,2.0924,2.0961,2.0941,2.0965,2.0961,2.0971,2.0955,2.0969,2.0971,2.0986,2.0971,2.0973,2.1139,2.1142,2.1244,2.1294,0,0,0,2.094,2.0963,2.0969,2.0967,2.097,2.0969,2.0961,2.0968,2.0961,2.097,2.0973,2.1138,2.1142,2.1238,2.1285,2.1349,0,0,0,2.0968,2.1067,2.0972,2.1076,2.097,2.1036,2.0961,2.1008,2.1029,2.0972,2.114,2.1143,2.1237,2.1279,2.1344,2.141,2.1442,0,0,2.1115,2.1086,2.1144,2.1059,2.1151,2.1032,2.114,2.1122,2.1087,2.1127,2.113,2.1246,2.1284,2.1348,2.1609,2.1634,0,0,0,2.1204,2.1245,2.1261,2.1282,2.127,2.1263,2.1224,2.1216,2.1248,2.1116,2.1286,2.1308,2.1344,2.1374,2.1395,2.1422,2.1159,2.1159,2.1158,2.1469,2.1417,2.1508,2.1456,2.1477,2.1434,2.1446,2.1429,2.1373,2.1414,2.1425,2.1589,2.1626,2.1641,2.167,2.1457,2.1458,2.1458,2.1458,2.1678,2.1727,2.1647,2.1706,2.1651,2.17,2.1662,2.1619,2.1656,2.1577,2.1606,2.1523,2.1671,2.1693,2.1466,2.1464,2.1463,2.1463,2.1462,2.1844,2.1859,2.1847,2.1869,2.1892,2.1836,2.1874,2.1823,2.1775,2.1804,2.1808,2.1806,2.1796,2.181,2.181,2.1811,2.1811,2.1812,2.1812,2.2021,2.2004,2.2042,2.2035,2.204,2.204,2.1996,2.1999,2.1989,2.1949,2.1948,2.1886,2.1696,2.1648,2.1821,2.1819,2.1818,2.1817,2.1817,2.2249,2.2188,2.2247,2.2252,2.2237,2.2262,2.2195,2.2206,2.2201,2.2221,2.2152,2.202,2.1987,2.1969,2.1929,2.2164,2.2164,2.2164,2.2164,2.2388,2.2366,2.2412,2.2422,2.2426,2.2371,2.2437,2.2404,2.2359,2.2352,2.2311,2.2254,2.2238,2.2214,2.2191,2.2153,2.244,2.244,2.244,2.2524,2.2499,2.2566,2.252,2.2504,2.2492,2.2551,2.2565,2.2503,2.245,2.2345,2.2334,2.2241,2.2214,2.2159,2.2124,2.2052,0,0]},{"header":{"parameterUnit":"m.s-1","parameterCategory":1,"la1":30.2992,"la2":30.254,"lo1":-89.0895,"lo2":-89.0443,"dy":0.0025,"dx":0.0025,"nx":19,"ny":19,"refTime":"2026-04-25T09:00:00:Z","depth":0,"parameterNumber":3,"parameterNumberName":"V-component_of_WINDS"},"data":[0,0,0,5.6066,5.607,5.6225,5.6225,5.6427,5.6429,0,0,0,0,0,0,0,0,0,0,0,5.6027,5.6029,5.6066,5.607,5.6225,5.6225,5.6427,5.6429,0,0,0,0,0,0,0,0,0,0,0,5.6027,5.6029,5.6031,5.6071,5.6225,5.6225,5.6426,5.6307,0,0,0,0,0,0,0,0,0,0,5.6156,5.6128,5.6028,5.6031,5.6072,5.6224,5.6225,5.6301,5.6315,5.636,0,5.6406,0,5.6421,5.6443,5.6444,0,0,0,5.6064,5.6117,5.6153,5.6031,5.6073,5.6224,5.6153,5.6309,5.6324,5.6378,5.6409,5.6416,5.6425,5.6444,5.6445,5.6739,5.6741,0,0,5.6055,5.6058,5.6142,5.6163,5.6144,5.6148,5.6158,5.6318,5.635,5.641,5.6421,5.6428,5.6446,5.6447,5.6738,5.674,0,0,0,5.6035,5.6052,5.6084,5.6155,5.6183,5.6153,5.6164,5.6343,5.6353,5.6423,5.643,5.6447,5.645,5.6736,5.6738,5.6825,0,0,0,5.603,5.604,5.6081,5.6084,5.618,5.6266,5.6186,5.6342,5.636,5.6429,5.6447,5.6452,5.6734,5.6737,5.6819,5.6865,0,0,0,5.6015,5.6038,5.6064,5.6083,5.6151,5.6263,5.6282,5.6346,5.6365,5.6444,5.6452,5.6733,5.6737,5.6813,5.6856,5.6943,0,0,0,5.5999,5.6136,5.6065,5.6221,5.6149,5.6317,5.6281,5.6405,5.6483,5.6448,5.6734,5.6738,5.6811,5.685,5.6938,5.7018,5.7052,0,0,5.6174,5.6158,5.6249,5.619,5.6372,5.6293,5.6485,5.6552,5.6555,5.6676,5.6684,5.6821,5.6855,5.6942,5.7242,5.7269,0,0,0,5.6305,5.6371,5.6419,5.6495,5.6552,5.6604,5.6642,5.6666,5.677,5.662,5.6876,5.6896,5.6947,5.6985,5.7009,5.7052,5.6756,5.6756,5.6755,5.6556,5.6555,5.6707,5.6725,5.6799,5.6837,5.6896,5.6935,5.691,5.697,5.7007,5.7189,5.7234,5.7252,5.7297,5.7049,5.7049,5.7049,5.705,5.6812,5.6905,5.6872,5.7007,5.7004,5.7115,5.7156,5.7135,5.7236,5.7162,5.7206,5.7126,5.7282,5.7321,5.7056,5.7055,5.7054,5.7054,5.7053,5.6976,5.7021,5.7051,5.7162,5.7246,5.7257,5.7357,5.7349,5.7342,5.7387,5.7424,5.7422,5.742,5.7405,5.7406,5.7406,5.7407,5.7407,5.7408,5.7135,5.7166,5.7254,5.7326,5.7374,5.7436,5.7475,5.752,5.7568,5.7555,5.7555,5.7524,5.7298,5.7241,5.7418,5.7416,5.7415,5.7414,5.7413,5.7396,5.7336,5.7471,5.752,5.7603,5.7687,5.7676,5.777,5.7806,5.7855,5.7814,5.7648,5.763,5.7612,5.7565,5.7814,5.7814,5.7814,5.7814,5.7535,5.7525,5.7662,5.774,5.7815,5.7819,5.7968,5.7999,5.802,5.8042,5.8004,5.7941,5.7923,5.7915,5.789,5.7846,5.8162,5.8163,5.8163,5.7695,5.7692,5.7823,5.7847,5.7912,5.7966,5.8106,5.8193,5.8204,5.8177,5.8058,5.8044,5.7942,5.7909,5.7879,5.784,5.776,0,0]}]]